Regional Weather Roundup
Issued by NWS

Home | Current Version | Previous Version | Text Only | Print | Product List | Glossary On
Versions: 1 2 3 4 5 6 7 8 9 10 11 12 13 14 15 16 17 18 19 20 21 22 23 24 25 26 27 28 29 30 31 32 33 34 35 36 37 38 39 40 41 42 43 44 45 46 47 48 49 50
247
ASUS45 KBOU 231607
RWRCO

WEATHER ROUNDUP FOR COLORADO
NATIONAL WEATHER SERVICE DENVER/BOULDER CO
1000 AM MDT MON MAY 23 2016

NOTE: "FAIR" INDICATES FEW OR NO CLOUDS BELOW 12000 FEET WITH NO
SIGNIFICANT WEATHER AND/OR OBSTRUCTIONS TO VISIBILITY.

COZ001>005-013-030-031-231700-
...NORTHWEST COLORADO...

CITY           SKY/WX    TMP DP  RH WIND       PRES   REMARKS
CRAIG          FAIR      53  30  41 VRB7      29.99F
HAYDEN         FAIR      48  28  46 CALM      29.99F
MEEKER         FAIR      50  29  44 CALM      29.97F
MOUNT WERNER   NOT AVBL
STEAMBOAT SPGS FAIR      47  32  56 CALM      29.99F
WALDEN         FAIR      46  23  39 CALM      30.03F
$$

COZ006>008-011-231700-
...WEST CENTRAL VALLEYS...

CITY           SKY/WX    TMP DP  RH WIND       PRES   REMARKS
GRAND JUNCTION FAIR      60  24  25 SE10      29.92F
MONTROSE       FAIR      57  25  29 VRB6      29.97F
EAGLE          MOSUNNY   50  25  37 CALM      30.01F
RIFLE            N/A     55  31  39 MISG      29.95F
DELTA          FAIR      59  24  25 CALM      29.95F
NUCLA          FAIR      55  30  38 NW6       30.00S
$$

COZ017>023-064>068-231700-
...SOUTHWEST COLORADO...

CITY           SKY/WX    TMP DP  RH WIND       PRES   REMARKS
DURANGO        FAIR      56  26  31 VRB3      30.04S
CORTEZ         FAIR      62  26  25 S15G23    29.99S
PAGOSA SPRINGS FAIR      53  22  29 W3        30.08F
TELLURIDE      FAIR      51  18  27 W5G16     30.08R
WOLF CREEK PAS FAIR      34  21  60 SW17G30   30.23R WCI  23
$$

COZ009-010-012-014-032>034-037-058>063-231700-
...CENTRAL COLORADO...

CITY           SKY/WX    TMP DP  RH WIND       PRES   REMARKS
ASPEN          PTSUNNY   51  24  34 N6        29.99F
BUENA VISTA    FAIR      56  22  27 SE15      30.01F
COPPER MTN     NOT AVBL
BERTHOUD PASS  PTSUNNY   30  21  69 SW9G31    30.17S WCI  22
COTTONWOOD PAS FAIR      54  19  26 E9G18     30.08F
GUNNISON       FAIR      52  25  35 N3        30.04F
KREMMLING      FAIR      50  30  46 CALM      30.02F
LEADVILLE      FAIR      46  11  24 S10G16    30.06F
MONARCH PASS   FAIR      36  18  48 MISG      30.27S
SALIDA         FAIR      58  27  31 SE14      30.07F
SUNLIGHT       PTSUNNY   41  25  52 CALM      30.14S
WILKERSON PASS FAIR      43  27  52 SW6       30.17F
$$

COZ069>075-231700-
...SAN LUIS VALLEY/SANGRE DE CRISTO MOUNTAINS...

CITY           SKY/WX    TMP DP  RH WIND       PRES   REMARKS
ALAMOSA        FAIR      59  19  21 S12G21    30.02F
LA VETA PASS   FAIR      46  19  34 S8G17     30.14F
SAGUACHE       FAIR      54  28  37 SE7       30.04F
$$

COZ035-036-038>040-231700-
...NORTHERN COLORADO FRONT RANGE...

CITY           SKY/WX    TMP DP  RH WIND       PRES   REMARKS
DENVER INTL AP PTSUNNY   57  36  45 SE13      29.95F
DMNS CITY PARK   N/A     60  34  37 E18       29.93F
AURORA         PTSUNNY   58  35  42 SE15      29.95F
FRONT RANGE AP PTSUNNY   55  34  44 SE15G22   29.97S
ERIE MUNI ARPT FAIR      60  34  38 S9        29.93F
BOULDER MUN AP NOT AVBL
CENTENNIAL     PTSUNNY   58  32  37 SE15      29.95F
BROOMFIELD     PTSUNNY   59  34  38 SE13      29.95F
FORT COLLINS   FAIR      57  37  47 S13       29.94F
LONGMONT       FAIR      62  34  35 S9        29.95F
$$

COZ041-046-047-076>085-087-088-231700-
...PIKES PEAK/PALMER DIVIDE AND SOUTHERN FOOTHILLS...

CITY           SKY/WX    TMP DP  RH WIND       PRES   REMARKS
COLO. SPRINGS  FAIR      57  29  34 VRB7      30.02F
A. F. ACADEMY  FAIR      57  30  35 S13       30.00F
SCHRIEVER AFB  NOT AVBL
ELLICOTT       FAIR     N/A N/A N/A E12       29.99S
FALCON         FAIR      56  27  32 S10       30.04S
FORT CARSON    FAIR      58  32  37 VRB6      29.99F
LIMON          FAIR      61  32  33 NE14G21   29.96S
MONUMENT HILL  FAIR      54  32  43 SE16G22   30.02F
TRINIDAD       FAIR      60  37  42 VRB3      29.99F
$$

COZ042>045-048>051-090-091-231700-
...NORTHEAST COLORADO...

CITY           SKY/WX    TMP DP  RH WIND       PRES   REMARKS
GREELEY ARPT   FAIR      61  37  41 SW10      29.94F
AKRON          FAIR      63  34  33 N13       29.92F
BURLINGTON     FAIR      66  37  34 NE12      29.90F
WRAY           FAIR      68  34  28 N9        29.89F
STERLING       FAIR      64  34  32 N10       29.89F
HOLYOKE        FAIR      68  36  30 NW8       29.89F
FORT MORGAN    FAIR      58  40  50 SW3       29.94F
$$

COZ086-089-092>099-231700-
...SOUTHEAST COLORADO...

CITY           SKY/WX    TMP DP  RH WIND       PRES   REMARKS
PUEBLO         FAIR      64  31  28 CALM      29.96F
LA JUNTA       FAIR      69  34  27 S5        29.92S
LAMAR          FAIR      72  45  37 NE17G24   29.85S
SPRINGFIELD      N/A     68  55  63 NE10      29.90R
$$




USA.gov is the U.S. government's official web portal to all federal, state and local government web resources and services.